DW9945 Weather Reports


time (UTC)temp
C
wind
direction
speed
KPH
gust
KPH
rain 1hr
cm
rain 24hr
cm
rain mn
cm
humidity
%
barometer
mb
20260904194507 31 325 1.6 3.2 0.00 0.00 0.00 19 1017.6
20260904194006 31 333 3.2 4.8 0.00 0.00 0.00 19 1017.6
20260904193506 31 322 1.6 4.8 0.00 0.00 0.00 18 1017.5
20260904193007 31 295 3.2 4.8 0.00 0.00 0.00 18 1017.5
20260904192506 31 291 3.2 4.8 0.00 0.00 0.00 18 1017.6
20260904192007 30 291 1.6 4.8 0.00 0.00 0.00 18 1017.5
20260904191507 30 312 1.6 3.2 0.00 0.00 0.00 18 1017.4
20260904191006 31 312 1.6 4.8 0.00 0.00 0.00 18 1017.3
20260904190507 31 292 1.6 4.8 0.00 0.00 0.00 18 1017.1
20260904190008 31 295 3.2 4.8 0.00 0.00 0.00 18 1017.1
20260904185510 31 306 3.2 4.8 0.00 0.00 0.00 18 1017.1
20260904185007 32 301 3.2 4.8 0.00 0.00 0.00 17 1017.1
20260904184506 33 298 3.2 4.8 0.00 0.00 0.00 17 1017.1
20260904183506 33 255 0.0 0.0 0.00 0.00 0.00 17 1017.2
20260904183006 34 255 0.0 0.0 0.00 0.00 0.00 17 1017.1
20260904182507 35 255 1.6 3.2 0.00 0.00 0.00 17 1017.2
20260904182006 35 233 1.6 3.2 0.00 0.00 0.00 17 1017.3
20260904181006 35 191 3.2 4.8 0.00 0.00 0.00 16 1017.2
20260904180510 35 193 3.2 4.8 0.00 0.00 0.00 16 1017.1
20260904180006 35 195 4.8 8.0 0.00 0.00 0.00 16 1017.1
20260904175506 35 208 3.2 4.8 0.00 0.00 0.00 16 1017.1
20260904175006 36 202 1.6 3.2 0.00 0.00 0.00 16 1017.1
20260904174506 36 232 1.6 4.8 0.00 0.00 0.00 16 1017.1
20260904174007 36 233 1.6 4.8 0.00 0.00 0.00 16 1017.2
20260904173506 36 221 3.2 4.8 0.00 0.00 0.00 16 1017.2
20260904173011 36 200 1.6 4.8 0.00 0.00 0.00 16 1017.3
20260904172506 36 225 3.2 4.8 0.00 0.00 0.00 16 1017.2
20260904172006 36 220 3.2 4.8 0.00 0.00 0.00 16 1017.3
20260904171506 36 234 3.2 8.0 0.00 0.00 0.00 15 1017.2
20260904170506 36 209 0.0 4.8 0.00 0.00 0.00 15 1017.1
20260904170006 36 198 3.2 8.0 0.00 0.00 0.00 15 1017.1
20260904164506 36 200 4.8 11.3 0.00 0.00 0.00 15 1017.1
20260904164006 36 180 4.8 8.0 0.00 0.00 0.00 15 1017.1
20260904163505 36 216 4.8 9.7 0.00 0.00 0.00 15 1017.1
20260904163006 36 221 6.4 11.3 0.00 0.00 0.00 15 1017.1
20260904162505 36 228 8.0 11.3 0.00 0.00 0.00 15 1017.1
20260904162005 36 191 8.0 11.3 0.00 0.00 0.00 15 1017.2
20260904161506 36 193 8.0 14.5 0.00 0.00 0.00 15 1017.3
20260904161006 36 183 4.8 11.3 0.00 0.00 0.00 15 1017.2
20260904160506 37 192 4.8 11.3 0.00 0.00 0.00 15 1017.2
20260904160006 37 217 8.0 14.5 0.00 0.00 0.00 15 1017.3
20260904155505 37 220 3.2 11.3 0.00 0.00 0.00 14 1017.3
20260904155005 37 218 4.8 12.9 0.00 0.00 0.00 15 1017.4
20260904154506 37 172 8.0 12.9 0.00 0.00 0.00 15 1017.3
20260904154006 36 190 4.8 12.9 0.00 0.00 0.00 15 1017.3
20260904153006 36 193 6.4 11.3 0.00 0.00 0.00 15 1017.4
20260904152506 36 188 4.8 19.3 0.00 0.00 0.00 15 1017.4
20260904151506 37 232 8.0 12.9 0.00 0.00 0.00 14 1017.5
20260904151006 37 215 3.2 11.3 0.00 0.00 0.00 15 1017.5
20260904150506 37 224 8.0 16.1 0.00 0.00 0.00 14 1017.7
20260904150006 37 207 8.0 11.3 0.00 0.00 0.00 14 1017.6
20260904145506 36 200 6.4 16.1 0.00 0.00 0.00 14 1017.6
20260904145005 36 205 11.3 16.1 0.00 0.00 0.00 14 1017.7
20260904144505 36 217 9.7 20.9 0.00 0.00 0.00 14 1017.8
20260904144006 36 218 9.7 19.3 0.00 0.00 0.00 14 1017.7
20260904143506 36 209 8.0 19.3 0.00 0.00 0.00 14 1017.7
20260904143006 36 229 9.7 19.3 0.00 0.00 0.00 14 1017.7
20260904142505 37 212 4.8 19.3 0.00 0.00 0.00 13 1018.0
20260904142005 37 220 6.4 11.3 0.00 0.00 0.00 13 1018.1
20260904141506 37 185 4.8 14.5 0.00 0.00 0.00 14 1018.1
20260904141006 37 213 8.0 14.5 0.00 0.00 0.00 14 1018.1
20260904140506 37 206 6.4 11.3 0.00 0.00 0.00 14 1018.2
20260904140006 36 178 4.8 19.3 0.00 0.00 0.00 14 1018.4
20260904135505 36 279 0.0 4.8 0.00 0.00 0.00 14 1018.5
20260904135006 36 253 8.0 11.3 0.00 0.00 0.00 14 1018.6
20260904134005 36 242 9.7 19.3 0.00 0.00 0.00 15 1018.7
20260904133505 36 237 4.8 14.5 0.00 0.00 0.00 15 1018.7
20260904133006 36 200 6.4 12.9 0.00 0.00 0.00 15 1018.7
20260904132505 36 225 4.8 12.9 0.00 0.00 0.00 15 1018.7
20260904132005 36 220 6.4 14.5 0.00 0.00 0.00 15 1018.9
20260904131505 36 248 8.0 16.1 0.00 0.00 0.00 15 1019.0
20260904131005 36 197 9.7 19.3 0.00 0.00 0.00 15 1019.0
20260904130505 36 208 9.7 22.5 0.00 0.00 0.00 14 1019.1
20260904130006 35 236 4.8 12.9 0.00 0.00 0.00 15 1019.1
20260904125505 35 213 9.7 19.3 0.00 0.00 0.00 14 1019.3
20260904125005 35 245 8.0 14.5 0.00 0.00 0.00 14 1019.3
20260904124506 35 198 4.8 11.3 0.00 0.00 0.00 15 1019.4
20260904124006 35 209 3.2 12.9 0.00 0.00 0.00 15 1019.4
20260904123006 35 153 4.8 8.0 0.00 0.00 0.00 14 1019.4
20260904122506 35 242 1.6 9.7 0.00 0.00 0.00 14 1019.4
20260904121506 35 235 1.6 9.7 0.00 0.00 0.00 15 1019.6
20260904120505 34 230 6.4 11.3 0.00 0.00 0.00 16 1019.7
20260904115506 34 189 6.4 11.3 0.00 0.00 0.00 16 1019.7
20260904115005 33 186 4.8 12.9 0.00 0.00 0.00 16 1019.8
20260904114505 33 155 4.8 11.3 0.00 0.00 0.00 16 1019.9
20260904114005 33 193 4.8 9.7 0.00 0.00 0.00 16 1019.9
20260904113005 33 193 6.4 9.7 0.00 0.00 0.00 17 1020.1
20260904112506 33 220 6.4 9.7 0.00 0.00 0.00 16 1020.1
20260904112005 33 221 4.8 8.0 0.00 0.00 0.00 16 1020.2
20260904111506 32 187 6.4 11.3 0.00 0.00 0.00 17 1020.1
20260904111005 32 190 4.8 8.0 0.00 0.00 0.00 17 1020.1
20260904110506 32 150 4.8 12.9 0.00 0.00 0.00 17 1020.3
20260904110006 32 136 4.8 9.7 0.00 0.00 0.00 18 1020.4
20260904105505 32 154 3.2 9.7 0.00 0.00 0.00 18 1020.6
20260904105005 32 157 4.8 9.7 0.00 0.00 0.00 18 1020.7
20260904104005 31 162 3.2 4.8 0.00 0.00 0.00 18 1020.7
20260904103505 31 214 4.8 9.7 0.00 0.00 0.00 19 1020.8
20260904103006 31 196 3.2 4.8 0.00 0.00 0.00 19 1020.8
20260904102505 31 242 1.6 4.8 0.00 0.00 0.00 19 1020.8
20260904102006 31 179 1.6 4.8 0.00 0.00 0.00 19 1021.0
20260904101505 30 150 3.2 8.0 0.00 0.00 0.00 19 1020.9
20260904100506 30 161 4.8 9.7 0.00 0.00 0.00 19 1021.0
20260904100008 30 189 3.2 4.8 0.00 0.00 0.00 19 1021.0
20260904095507 30 230 3.2 11.3 0.00 0.00 0.00 20 1021.0
20260904095008 30 207 3.2 4.8 0.00 0.00 0.00 20 1021.0
20260904094507 30 210 1.6 4.8 0.00 0.00 0.00 20 1020.9
20260904094007 30 229 3.2 4.8 0.00 0.00 0.00 20 1020.9
20260904093508 29 68 0.0 4.8 0.00 0.00 0.00 20 1020.9
20260904093007 29 68 0.0 4.8 0.00 0.00 0.00 21 1020.9
20260904092507 28 164 1.6 3.2 0.00 0.00 0.00 22 1020.8
20260904092007 28 117 0.0 0.0 0.00 0.00 0.00 22 1020.8
20260904091508 28 117 0.0 0.0 0.00 0.00 0.00 23 1020.7
20260904091007 28 115 0.0 4.8 0.00 0.00 0.00 22 1020.8
20260904090007 27 284 1.6 3.2 0.00 0.00 0.00 22 1020.8
20260904085507 27 160 0.0 0.0 0.00 0.00 0.00 22 1020.8
20260904085007 27 160 0.0 1.6 0.00 0.00 0.00 24 1020.8
20260904084507 26 157 1.6 3.2 0.00 0.00 0.00 23 1020.8
20260904084007 26 159 1.6 3.2 0.00 0.00 0.00 23 1020.8
20260904083507 26 166 0.0 0.0 0.00 0.00 0.00 25 1020.8
20260904083007 26 184 0.0 1.6 0.00 0.00 0.00 26 1020.8
20260904082507 25 184 0.0 0.0 0.00 0.00 0.00 25 1020.8
20260904082007 25 184 0.0 0.0 0.00 0.00 0.00 25 1020.7
20260904081507 25 184 0.0 0.0 0.00 0.00 0.00 26 1020.7
20260904081007 24 184 0.0 0.0 0.00 0.00 0.00 26 1020.7
20260904080507 23 184 0.0 0.0 0.00 0.00 0.00 27 1020.7
20260904075507 22 184 0.0 0.0 0.00 0.00 0.00 28 1020.7
20260904075007 22 184 0.0 3.2 0.00 0.00 0.00 29 1020.7
20260904074507 21 184 1.6 4.8 0.00 0.00 0.00 29 1020.7
20260904073507 21 195 3.2 4.8 0.00 0.00 0.00 29 1020.7
20260904073007 21 171 1.6 4.8 0.00 0.00 0.00 30 1020.8
20260904072507 21 211 3.2 4.8 0.00 0.00 0.00 30 1020.8
20260904072007 21 185 1.6 4.8 0.00 0.00 0.00 30 1020.7
20260904071507 21 192 4.8 4.8 0.00 0.00 0.00 30 1020.7
20260904071008 20 183 3.2 4.8 0.00 0.00 0.00 30 1020.6
20260904070008 20 225 1.6 3.2 0.00 0.00 0.00 31 1020.6